Time,TemperatureF,DewpointF,PressureIn,WindDirection,WindDirectionDegrees,WindSpeedMPH,WindSpeedGustMPH,Humidity,HourlyPrecipIn,Conditions,Clouds,dailyrainin,SoftwareType,DateUTC
2013-06-23 00:05:00,65.7,63.6,30.11,ENE,71,0.0,0.0,93,0.00,,,0.00,Wunderground v.1.15,2013-06-23 04:05:00,
2013-06-23 00:10:00,65.6,63.5,30.11,ENE,71,0.0,0.0,93,0.00,,,0.00,Wunderground v.1.15,2013-06-23 04:10:00,
2013-06-23 00:15:00,65.5,63.4,30.11,ENE,71,0.0,0.0,93,0.00,,,0.00,Wunderground v.1.15,2013-06-23 04:15:00,
2013-06-23 00:25:00,65.4,63.3,30.11,ENE,71,0.0,0.0,93,0.00,,,0.00,Wunderground v.1.15,2013-06-23 04:25:00,
2013-06-23 00:35:00,65.5,63.4,30.11,ENE,71,0.0,0.0,93,0.00,,,0.00,Wunderground v.1.15,2013-06-23 04:35:00,
2013-06-23 00:40:00,65.5,63.4,30.11,ENE,71,0.0,0.0,93,0.00,,,0.01,Wunderground v.1.15,2013-06-23 04:40:00,
2013-06-23 00:45:00,65.4,63.6,30.11,ENE,71,0.0,0.0,94,0.00,,,0.01,Wunderground v.1.15,2013-06-23 04:45:00,
2013-06-23 00:50:00,65.3,63.5,30.11,ENE,71,0.0,0.0,94,0.00,,,0.01,Wunderground v.1.15,2013-06-23 04:50:00,
2013-06-23 00:55:00,65.2,63.4,30.10,ENE,71,0.0,0.0,94,0.04,,,0.02,Wunderground v.1.15,2013-06-23 04:55:00,
2013-06-23 01:00:00,65.1,63.6,30.10,ENE,71,0.0,0.0,95,0.04,,,0.02,Wunderground v.1.15,2013-06-23 05:00:00,
2013-06-23 01:05:00,65.0,63.5,30.10,ENE,71,0.0,0.0,95,0.04,,,0.02,Wunderground v.1.15,2013-06-23 05:05:00,
2013-06-23 01:15:00,64.8,63.6,30.10,ENE,71,0.0,0.0,96,0.00,,,0.02,Wunderground v.1.15,2013-06-23 05:15:00,
2013-06-23 01:20:00,64.7,63.5,30.10,ENE,71,0.0,0.0,96,0.00,,,0.02,Wunderground v.1.15,2013-06-23 05:20:00,
2013-06-23 01:25:00,64.7,63.5,30.10,ENE,71,0.0,0.0,96,0.00,,,0.02,Wunderground v.1.15,2013-06-23 05:25:00,
2013-06-23 01:35:00,64.6,63.4,30.09,ENE,71,0.0,0.0,96,0.00,,,0.02,Wunderground v.1.15,2013-06-23 05:35:00,
2013-06-23 01:40:00,64.5,63.3,30.09,ENE,71,0.0,0.0,96,0.00,,,0.02,Wunderground v.1.15,2013-06-23 05:40:00,
2013-06-23 01:45:00,64.5,63.6,30.09,ENE,71,0.0,0.0,97,0.00,,,0.02,Wunderground v.1.15,2013-06-23 05:45:00,
2013-06-23 01:55:00,64.4,63.5,30.09,ENE,71,0.0,0.0,97,0.00,,,0.02,Wunderground v.1.15,2013-06-23 05:55:00,
2013-06-23 02:05:00,64.4,63.5,30.09,ENE,71,0.0,0.0,97,0.00,,,0.02,Wunderground v.1.15,2013-06-23 06:05:00,
2013-06-23 02:10:00,64.4,63.5,30.09,ENE,71,0.0,0.0,97,0.00,,,0.02,Wunderground v.1.15,2013-06-23 06:10:00,
2013-06-23 02:15:00,64.4,63.5,30.09,ENE,71,0.0,0.0,97,0.00,,,0.02,Wunderground v.1.15,2013-06-23 06:15:00,
2013-06-23 02:25:00,64.4,63.5,30.09,ENE,71,0.0,0.0,97,0.00,,,0.02,Wunderground v.1.15,2013-06-23 06:25:00,
2013-06-23 02:35:00,64.3,63.4,30.09,ENE,71,0.0,0.0,97,0.00,,,0.02,Wunderground v.1.15,2013-06-23 06:35:00,
2013-06-23 02:45:00,64.3,63.4,30.09,ENE,71,0.0,0.0,97,0.00,,,0.02,Wunderground v.1.15,2013-06-23 06:45:00,
2013-06-23 02:55:00,64.2,63.3,30.08,ENE,71,0.0,0.0,97,0.00,,,0.02,Wunderground v.1.15,2013-06-23 06:55:00,
2013-06-23 03:00:00,64.2,63.3,30.08,ENE,71,0.0,0.0,97,0.00,,,0.02,Wunderground v.1.15,2013-06-23 07:00:00,
2013-06-23 03:05:00,64.2,63.3,30.08,ENE,71,0.0,0.0,97,0.00,,,0.02,Wunderground v.1.15,2013-06-23 07:05:00,
2013-06-23 03:15:00,64.4,63.5,30.08,ENE,71,0.0,0.0,97,0.00,,,0.02,Wunderground v.1.15,2013-06-23 07:15:00,
2013-06-23 03:20:00,64.4,63.5,30.08,ENE,71,0.0,0.0,97,0.00,,,0.02,Wunderground v.1.15,2013-06-23 07:20:00,
2013-06-23 03:25:00,64.3,63.4,30.07,ENE,71,0.0,0.0,97,0.00,,,0.02,Wunderground v.1.15,2013-06-23 07:25:00,
2013-06-23 03:35:00,64.1,63.2,30.07,ENE,71,0.0,0.0,97,0.00,,,0.02,Wunderground v.1.15,2013-06-23 07:35:00,
2013-06-23 03:40:00,64.1,63.2,30.07,ENE,71,0.0,0.0,97,0.00,,,0.02,Wunderground v.1.15,2013-06-23 07:40:00,
2013-06-23 03:45:00,64.0,63.1,30.07,ENE,71,0.0,0.0,97,0.00,,,0.02,Wunderground v.1.15,2013-06-23 07:45:00,
2013-06-23 03:55:00,63.6,62.7,30.07,ENE,71,0.0,0.0,97,0.00,,,0.02,Wunderground v.1.15,2013-06-23 07:55:00,
2013-06-23 04:05:00,63.6,63.0,30.07,ENE,71,0.0,0.0,98,0.00,,,0.02,Wunderground v.1.15,2013-06-23 08:05:00,
2013-06-23 04:10:00,63.6,63.0,30.07,ENE,71,0.0,0.0,98,0.00,,,0.02,Wunderground v.1.15,2013-06-23 08:10:00,
2013-06-23 04:15:00,63.7,63.1,30.07,ENE,71,0.0,0.0,98,0.00,,,0.02,Wunderground v.1.15,2013-06-23 08:15:00,
2013-06-23 04:25:00,63.8,63.2,30.07,ENE,71,0.0,0.0,98,0.00,,,0.02,Wunderground v.1.15,2013-06-23 08:25:00,
2013-06-23 04:30:00,64.1,63.5,30.06,ENE,71,0.0,0.0,98,0.00,,,0.02,Wunderground v.1.15,2013-06-23 08:30:00,
2013-06-23 04:35:00,64.3,63.7,30.06,ENE,71,0.0,0.0,98,0.00,,,0.02,Wunderground v.1.15,2013-06-23 08:35:00,
2013-06-23 04:45:00,64.3,63.7,30.07,ENE,71,0.0,0.0,98,0.00,,,0.02,Wunderground v.1.15,2013-06-23 08:45:00,
2013-06-23 04:55:00,64.3,63.7,30.06,ENE,71,0.0,0.0,98,0.00,,,0.02,Wunderground v.1.15,2013-06-23 08:55:00,
2013-06-23 05:00:00,64.3,63.7,30.07,ENE,71,0.0,0.0,98,0.00,,,0.02,Wunderground v.1.15,2013-06-23 09:00:00,
2013-06-23 05:10:00,64.1,63.5,30.07,ENE,71,0.0,0.0,98,0.00,,,0.02,Wunderground v.1.15,2013-06-23 09:10:00,
2013-06-23 05:15:00,64.1,63.5,30.06,ENE,71,0.0,0.0,98,0.00,,,0.02,Wunderground v.1.15,2013-06-23 09:15:00,
2013-06-23 05:20:00,64.1,63.5,30.07,ENE,71,0.0,0.0,98,0.00,,,0.02,Wunderground v.1.15,2013-06-23 09:20:00,
2013-06-23 05:25:00,64.1,63.5,30.07,ENE,71,0.0,0.0,98,0.00,,,0.02,Wunderground v.1.15,2013-06-23 09:25:00,
2013-06-23 05:35:00,64.1,63.5,30.07,ENE,71,0.0,0.0,98,0.00,,,0.02,Wunderground v.1.15,2013-06-23 09:35:00,
2013-06-23 05:45:00,64.1,63.8,30.07,ENE,71,0.0,0.0,99,0.00,,,0.02,Wunderground v.1.15,2013-06-23 09:45:00,
2013-06-23 05:55:00,64.1,63.8,30.08,ENE,71,0.0,0.0,99,0.00,,,0.02,Wunderground v.1.15,2013-06-23 09:55:00,
2013-06-23 06:05:00,64.2,63.9,30.07,ENE,71,0.0,0.0,99,0.00,,,0.02,Wunderground v.1.15,2013-06-23 10:05:00,
2013-06-23 06:10:00,64.2,63.9,30.07,ENE,71,0.0,0.0,99,0.00,,,0.02,Wunderground v.1.15,2013-06-23 10:10:00,
2013-06-23 06:15:00,64.2,63.9,30.07,ENE,71,0.0,0.0,99,0.00,,,0.02,Wunderground v.1.15,2013-06-23 10:15:00,
2013-06-23 06:25:00,64.1,63.5,30.08,ENE,71,0.0,0.0,98,0.00,,,0.02,Wunderground v.1.15,2013-06-23 10:25:00,
2013-06-23 06:30:00,64.1,63.5,30.08,ENE,71,0.0,0.0,98,0.00,,,0.02,Wunderground v.1.15,2013-06-23 10:30:00,
2013-06-23 06:35:00,64.1,63.5,30.08,ENE,71,0.0,0.0,98,0.00,,,0.02,Wunderground v.1.15,2013-06-23 10:35:00,
2013-06-23 06:45:00,64.1,63.5,30.08,ENE,71,0.0,0.0,98,0.00,,,0.02,Wunderground v.1.15,2013-06-23 10:45:00,
2013-06-23 06:55:00,64.3,63.7,30.08,ENE,71,0.0,0.0,98,0.00,,,0.02,Wunderground v.1.15,2013-06-23 10:55:00,
2013-06-23 07:00:00,64.3,63.7,30.08,ENE,71,0.0,0.0,98,0.00,,,0.02,Wunderground v.1.15,2013-06-23 11:00:00,
2013-06-23 07:05:00,64.4,63.8,30.09,ENE,71,0.0,0.0,98,0.00,,,0.02,Wunderground v.1.15,2013-06-23 11:05:00,
2013-06-23 07:15:00,64.7,64.1,30.09,ENE,71,0.0,0.0,98,0.00,,,0.02,Wunderground v.1.15,2013-06-23 11:15:00,
2013-06-23 07:20:00,64.7,64.1,30.09,ENE,71,0.0,0.0,98,0.00,,,0.02,Wunderground v.1.15,2013-06-23 11:20:00,
2013-06-23 07:25:00,64.7,63.8,30.09,ENE,71,0.0,0.0,97,0.00,,,0.02,Wunderground v.1.15,2013-06-23 11:25:00,
2013-06-23 07:35:00,64.8,63.6,30.09,ENE,71,0.0,0.0,96,0.00,,,0.02,Wunderground v.1.15,2013-06-23 11:35:00,
2013-06-23 07:40:00,65.0,63.8,30.09,ENE,71,0.0,0.0,96,0.00,,,0.02,Wunderground v.1.15,2013-06-23 11:40:00,
2013-06-23 07:45:00,65.2,63.7,30.10,ENE,71,0.0,0.0,95,0.00,,,0.02,Wunderground v.1.15,2013-06-23 11:45:00,
2013-06-23 07:55:00,65.3,63.8,30.10,ENE,71,0.0,0.0,95,0.00,,,0.02,Wunderground v.1.15,2013-06-23 11:55:00,
2013-06-23 08:05:00,65.5,64.3,30.11,ENE,71,0.0,0.0,96,0.00,,,0.02,Wunderground v.1.15,2013-06-23 12:05:00,
2013-06-23 08:10:00,65.7,64.5,30.10,ENE,71,0.0,0.0,96,0.00,,,0.02,Wunderground v.1.15,2013-06-23 12:10:00,
2013-06-23 08:20:00,65.8,64.6,30.10,ENE,71,0.0,0.0,96,0.00,,,0.02,Wunderground v.1.15,2013-06-23 12:20:00,
2013-06-23 08:25:00,65.8,64.3,30.10,ENE,71,0.0,0.0,95,0.00,,,0.02,Wunderground v.1.15,2013-06-23 12:25:00,
2013-06-23 08:30:00,65.7,64.5,30.09,ENE,71,0.0,0.0,96,0.00,,,0.02,Wunderground v.1.15,2013-06-23 12:30:00,
2013-06-23 08:35:00,65.4,63.9,30.09,ENE,71,0.0,0.0,95,0.00,,,0.02,Wunderground v.1.15,2013-06-23 12:35:00,
2013-06-23 08:45:00,65.3,64.4,30.08,ENE,71,0.0,0.0,97,0.00,,,0.03,Wunderground v.1.15,2013-06-23 12:45:00,
2013-06-23 08:50:00,65.2,64.3,30.08,ENE,71,0.0,0.0,97,0.18,,,0.03,Wunderground v.1.15,2013-06-23 12:50:00,
2013-06-23 09:00:00,65.1,64.2,30.08,ENE,71,0.0,0.0,97,0.05,,,0.03,Wunderground v.1.15,2013-06-23 13:00:00,
2013-06-23 09:05:00,65.1,64.5,30.08,ENE,71,0.0,0.0,98,0.00,,,0.03,Wunderground v.1.15,2013-06-23 13:05:00,
2013-06-23 09:15:00,65.4,64.8,30.08,ENE,71,0.0,0.0,98,0.00,,,0.03,Wunderground v.1.15,2013-06-23 13:15:00,
2013-06-23 09:20:00,65.7,65.1,30.08,ENE,71,0.0,0.0,98,0.00,,,0.03,Wunderground v.1.15,2013-06-23 13:20:00,
2013-06-23 09:25:00,66.2,65.6,30.08,ENE,71,0.0,0.0,98,0.00,,,0.03,Wunderground v.1.15,2013-06-23 13:25:00,
2013-06-23 09:35:00,66.8,65.9,30.07,ENE,71,0.0,0.0,97,0.00,,,0.03,Wunderground v.1.15,2013-06-23 13:35:00,
2013-06-23 09:40:00,67.2,66.3,30.07,ENE,71,0.0,0.0,97,0.00,,,0.03,Wunderground v.1.15,2013-06-23 13:40:00,
2013-06-23 09:45:00,68.2,67.3,30.07,ENE,71,0.0,0.0,97,0.00,,,0.03,Wunderground v.1.15,2013-06-23 13:45:00,
2013-06-23 09:55:00,68.4,66.9,30.08,SW,215,0.0,0.0,95,0.00,,,0.03,Wunderground v.1.15,2013-06-23 13:55:00,
2013-06-23 10:05:00,69.5,68.0,30.08,SSW,213,0.0,0.0,95,0.00,,,0.03,Wunderground v.1.15,2013-06-23 14:05:00,
2013-06-23 10:10:00,70.4,68.9,30.07,SSW,192,0.0,0.0,95,0.00,,,0.03,Wunderground v.1.15,2013-06-23 14:10:00,
2013-06-23 10:20:00,69.7,67.6,30.07,WSW,244,0.0,0.0,93,0.00,,,0.03,Wunderground v.1.15,2013-06-23 14:20:00,
2013-06-23 10:25:00,69.3,66.9,30.07,WSW,244,0.0,0.0,92,0.00,,,0.03,Wunderground v.1.15,2013-06-23 14:25:00,
2013-06-23 10:30:00,68.8,66.7,30.08,WSW,245,0.0,0.0,93,0.00,,,0.03,Wunderground v.1.15,2013-06-23 14:30:00,
2013-06-23 10:35:00,68.6,66.5,30.08,WSW,245,0.0,0.0,93,0.00,,,0.03,Wunderground v.1.15,2013-06-23 14:35:00,
2013-06-23 10:45:00,68.3,66.5,30.08,WSW,245,0.0,0.0,94,0.00,,,0.03,Wunderground v.1.15,2013-06-23 14:45:00,
2013-06-23 10:55:00,67.8,66.0,30.07,WSW,245,0.0,0.0,94,0.00,,,0.04,Wunderground v.1.15,2013-06-23 14:55:00,
2013-06-23 11:05:00,67.7,66.5,30.06,WSW,245,0.0,0.0,96,0.06,,,0.05,Wunderground v.1.15,2013-06-23 15:05:00,
2013-06-23 11:15:00,67.8,66.9,30.07,ENE,65,0.0,0.0,97,0.05,,,0.05,Wunderground v.1.15,2013-06-23 15:15:00,
2013-06-23 11:20:00,67.8,66.9,30.06,ENE,65,0.0,0.0,97,0.04,,,0.05,Wunderground v.1.15,2013-06-23 15:20:00,
2013-06-23 11:25:00,67.7,66.8,30.06,ENE,65,0.0,0.0,97,0.00,,,0.05,Wunderground v.1.15,2013-06-23 15:25:00,
2013-06-23 11:35:00,67.8,66.9,30.06,SE,142,0.0,0.0,97,0.00,,,0.05,Wunderground v.1.15,2013-06-23 15:35:00,
2013-06-23 11:40:00,67.9,67.0,30.06,SE,142,0.0,0.0,97,0.00,,,0.05,Wunderground v.1.15,2013-06-23 15:40:00,
2013-06-23 11:45:00,68.1,67.2,30.06,SSE,161,0.0,0.0,97,0.00,,,0.05,Wunderground v.1.15,2013-06-23 15:45:00,
2013-06-23 11:55:00,68.4,67.5,30.06,SSE,161,0.0,0.0,97,0.00,,,0.05,Wunderground v.1.15,2013-06-23 15:55:00,
2013-06-23 12:00:00,68.6,67.7,30.06,SSE,161,0.0,0.0,97,0.00,,,0.05,Wunderground v.1.15,2013-06-23 16:00:00,
2013-06-23 12:10:00,69.2,68.0,30.05,SSE,161,0.0,0.0,96,0.00,,,0.05,Wunderground v.1.15,2013-06-23 16:10:00,
2013-06-23 12:20:00,69.7,68.2,30.05,SSE,161,0.0,0.0,95,0.00,,,0.05,Wunderground v.1.15,2013-06-23 16:20:00,
2013-06-23 12:25:00,70.0,68.2,30.05,SSE,162,0.0,0.0,94,0.00,,,0.05,Wunderground v.1.15,2013-06-23 16:25:00,
2013-06-23 12:30:00,70.5,69.0,30.04,SSE,162,0.0,0.0,95,0.00,,,0.05,Wunderground v.1.15,2013-06-23 16:30:00,
2013-06-23 12:36:00,70.7,68.3,30.05,SSW,195,0.0,0.0,92,0.00,,,0.05,Wunderground v.1.15,2013-06-23 16:36:00,
2013-06-23 12:45:00,72.2,70.1,30.05,SSW,195,0.0,0.0,93,0.00,,,0.05,Wunderground v.1.15,2013-06-23 16:45:00,
2013-06-23 12:50:00,72.9,70.1,30.04,SSW,195,0.0,0.0,91,0.00,,,0.05,Wunderground v.1.15,2013-06-23 16:50:00,
2013-06-23 13:00:00,73.8,70.7,30.04,WSW,238,1.0,1.0,90,0.00,,,0.05,Wunderground v.1.15,2013-06-23 17:00:00,
2013-06-23 13:05:00,74.5,71.4,30.03,SW,229,1.0,1.0,90,0.00,,,0.05,Wunderground v.1.15,2013-06-23 17:05:00,
2013-06-23 13:15:00,75.4,72.3,30.03,SSW,213,0.0,0.0,90,0.00,,,0.05,Wunderground v.1.15,2013-06-23 17:15:00,
2013-06-23 13:25:00,75.6,71.1,30.03,SSW,213,0.0,0.0,86,0.00,,,0.05,Wunderground v.1.15,2013-06-23 17:25:00,
2013-06-23 13:30:00,75.5,71.4,30.03,SW,214,0.0,0.0,87,0.00,,,0.05,Wunderground v.1.15,2013-06-23 17:30:00,
2013-06-23 13:40:00,75.8,71.7,30.02,SW,215,0.0,1.0,87,0.00,,,0.05,Wunderground v.1.15,2013-06-23 17:40:00,
2013-06-23 13:45:00,76.1,71.9,30.02,SW,214,0.0,1.0,87,0.00,,,0.05,Wunderground v.1.15,2013-06-23 17:45:00,
2013-06-23 13:50:00,76.7,72.2,30.02,SW,221,0.0,2.0,86,0.00,,,0.05,Wunderground v.1.15,2013-06-23 17:50:00,
2013-06-23 13:55:00,77.0,71.8,30.02,WSW,257,1.0,2.0,84,0.00,,,0.05,Wunderground v.1.15,2013-06-23 17:55:00,
2013-06-23 14:05:00,77.3,72.1,30.01,WSW,257,0.0,1.0,84,0.00,,,0.05,Wunderground v.1.15,2013-06-23 18:05:00,
2013-06-23 14:15:00,78.2,72.6,30.01,WSW,254,0.0,0.0,83,0.00,,,0.05,Wunderground v.1.15,2013-06-23 18:15:00,
2013-06-23 14:25:00,80.1,74.1,30.00,WSW,244,0.0,0.0,82,0.00,,,0.05,Wunderground v.1.15,2013-06-23 18:25:00,
2013-06-23 14:35:00,79.6,74.0,30.00,SSE,160,1.0,2.0,83,0.00,,,0.05,Wunderground v.1.15,2013-06-23 18:35:00,
2013-06-23 14:40:00,79.8,73.4,30.00,SSE,160,1.0,1.0,81,0.00,,,0.05,Wunderground v.1.15,2013-06-23 18:40:00,
2013-06-23 14:45:00,80.0,72.9,30.00,SSE,160,0.0,1.0,79,0.00,,,0.05,Wunderground v.1.15,2013-06-23 18:45:00,
2013-06-23 14:55:00,81.1,74.0,29.99,SSE,163,0.0,0.0,79,0.00,,,0.05,Wunderground v.1.15,2013-06-23 18:55:00,
2013-06-23 15:00:00,81.7,73.8,29.99,SSE,164,0.0,0.0,77,0.00,,,0.05,Wunderground v.1.15,2013-06-23 19:00:00,
2013-06-23 15:05:00,82.2,73.9,29.99,SSE,164,0.0,0.0,76,0.00,,,0.05,Wunderground v.1.15,2013-06-23 19:05:00,
2013-06-23 15:15:00,83.0,75.0,29.98,SSE,164,0.0,0.0,77,0.00,,,0.05,Wunderground v.1.15,2013-06-23 19:15:00,
2013-06-23 15:25:00,83.3,74.5,29.98,SSE,164,0.0,0.0,75,0.00,,,0.05,Wunderground v.1.15,2013-06-23 19:25:00,
2013-06-23 15:30:00,83.5,74.7,29.98,SSE,164,0.0,0.0,75,0.00,,,0.05,Wunderground v.1.15,2013-06-23 19:30:00,
2013-06-23 15:35:00,83.7,75.3,29.97,SSW,209,0.0,0.0,76,0.00,,,0.05,Wunderground v.1.15,2013-06-23 19:35:00,
2013-06-23 15:45:00,83.5,74.7,29.96,SSW,192,0.0,0.0,75,0.00,,,0.05,Wunderground v.1.15,2013-06-23 19:45:00,
2013-06-23 15:50:00,82.9,74.2,29.96,SSW,202,0.0,0.0,75,0.00,,,0.05,Wunderground v.1.15,2013-06-23 19:50:00,
2013-06-23 15:55:00,82.5,73.8,29.96,SSW,202,0.0,0.0,75,0.00,,,0.05,Wunderground v.1.15,2013-06-23 19:55:00,
2013-06-23 16:05:00,81.6,75.2,29.96,SSW,203,0.0,0.0,81,0.09,,,0.07,Wunderground v.1.15,2013-06-23 20:05:00,
2013-06-23 16:10:00,82.2,76.9,29.96,SSW,203,0.0,1.0,84,0.05,,,0.07,Wunderground v.1.15,2013-06-23 20:10:00,
2013-06-23 16:15:00,82.7,75.9,29.96,SSW,203,0.0,1.0,80,0.00,,,0.07,Wunderground v.1.15,2013-06-23 20:15:00,
2013-06-23 16:25:00,82.9,75.3,29.95,SSW,205,0.0,0.0,78,0.00,,,0.07,Wunderground v.1.15,2013-06-23 20:25:00,
2013-06-23 16:35:00,83.2,74.8,29.95,SSW,205,0.0,0.0,76,0.00,,,0.07,Wunderground v.1.15,2013-06-23 20:35:00,
2013-06-23 16:40:00,83.6,76.0,29.95,SSW,205,0.0,0.0,78,0.00,,,0.07,Wunderground v.1.15,2013-06-23 20:40:00,
2013-06-23 16:50:00,83.6,76.0,29.95,SSW,205,0.0,0.0,78,0.00,,,0.07,Wunderground v.1.15,2013-06-23 20:50:00,
2013-06-23 16:55:00,83.8,75.0,29.95,SSW,205,0.0,0.0,75,0.00,,,0.07,Wunderground v.1.15,2013-06-23 20:55:00,
2013-06-23 17:00:00,83.9,75.5,29.95,SSW,205,0.0,0.0,76,0.00,,,0.07,Wunderground v.1.15,2013-06-23 21:00:00,
2013-06-23 17:05:00,83.8,74.6,29.94,SSW,205,0.0,0.0,74,0.00,,,0.07,Wunderground v.1.15,2013-06-23 21:05:00,
2013-06-23 17:15:00,83.2,75.2,29.93,SSW,205,0.0,0.0,77,0.00,,,0.07,Wunderground v.1.15,2013-06-23 21:15:00,
2013-06-23 17:25:00,82.8,77.1,29.92,SSW,205,0.0,0.0,83,0.00,,,0.07,Wunderground v.1.15,2013-06-23 21:25:00,
2013-06-23 17:30:00,82.2,76.9,29.92,SSW,203,0.0,0.0,84,0.00,,,0.07,Wunderground v.1.15,2013-06-23 21:30:00,
2013-06-23 17:35:00,82.0,77.0,29.92,SSW,204,0.0,0.0,85,0.00,,,0.07,Wunderground v.1.15,2013-06-23 21:35:00,
2013-06-23 17:45:00,81.2,77.3,29.92,SSW,204,0.0,0.0,88,0.00,,,0.07,Wunderground v.1.15,2013-06-23 21:45:00,
2013-06-23 17:50:00,80.9,77.0,29.92,SSW,204,0.0,0.0,88,0.00,,,0.07,Wunderground v.1.15,2013-06-23 21:50:00,
2013-06-23 17:55:00,80.6,76.4,29.92,SSW,204,0.0,0.0,87,0.00,,,0.07,Wunderground v.1.15,2013-06-23 21:55:00,
2013-06-23 18:05:00,80.3,76.1,29.93,SSW,203,0.0,0.0,87,0.00,,,0.07,Wunderground v.1.15,2013-06-23 22:05:00,
2013-06-23 18:10:00,80.1,76.2,29.94,SSW,204,0.0,0.0,88,0.00,,,0.07,Wunderground v.1.15,2013-06-23 22:10:00,
2013-06-23 18:15:00,80.1,75.9,29.94,SSW,203,0.0,0.0,87,0.00,,,0.07,Wunderground v.1.15,2013-06-23 22:15:00,
2013-06-23 18:25:00,80.1,75.9,29.94,SSW,204,0.0,0.0,87,0.00,,,0.07,Wunderground v.1.15,2013-06-23 22:25:00,
2013-06-23 18:35:00,79.8,75.2,29.94,SSW,204,0.0,0.0,86,0.00,,,0.07,Wunderground v.1.15,2013-06-23 22:35:00,
2013-06-23 18:40:00,79.7,75.1,29.94,SSW,204,0.0,0.0,86,0.00,,,0.07,Wunderground v.1.15,2013-06-23 22:40:00,
2013-06-23 18:45:00,79.4,74.8,29.94,SSW,203,0.0,0.0,86,0.00,,,0.07,Wunderground v.1.15,2013-06-23 22:45:00,
2013-06-23 18:55:00,78.8,74.3,29.93,SSW,204,0.0,0.0,86,0.00,,,0.07,Wunderground v.1.15,2013-06-23 22:55:00,
2013-06-23 19:00:00,78.7,74.5,29.93,SSW,204,0.0,0.0,87,0.00,,,0.07,Wunderground v.1.15,2013-06-23 23:00:00,
2013-06-23 19:05:00,78.8,74.6,29.92,SSW,204,0.0,0.0,87,0.00,,,0.07,Wunderground v.1.15,2013-06-23 23:05:00,
2013-06-23 19:15:00,78.0,71.0,29.94,SW,218,1.0,4.0,79,0.00,,,0.07,Wunderground v.1.15,2013-06-23 23:15:00,
2013-06-23 19:20:00,77.3,69.5,29.94,SW,236,1.0,1.0,77,0.00,,,0.07,Wunderground v.1.15,2013-06-23 23:20:00,
2013-06-23 19:25:00,76.8,69.4,29.94,WSW,237,0.0,1.0,78,0.00,,,0.07,Wunderground v.1.15,2013-06-23 23:25:00,
2013-06-23 19:35:00,75.0,67.7,29.97,SSW,194,1.0,10.0,78,0.00,,,0.07,Wunderground v.1.15,2013-06-23 23:35:00,
2013-06-23 19:45:00,71.3,66.9,29.97,SSE,152,1.0,2.0,86,0.10,,,0.11,Wunderground v.1.15,2013-06-23 23:45:00,
2013-06-23 19:50:00,69.7,66.6,29.97,WSW,238,1.0,3.0,90,0.76,,,0.19,Wunderground v.1.15,2013-06-23 23:50:00,
2013-06-23 20:00:00,68.3,66.2,29.97,WSW,242,0.0,0.0,93,0.29,,,0.25,Wunderground v.1.15,2013-06-24 00:00:00,
2013-06-23 20:05:00,68.1,66.3,29.97,WSW,242,0.0,0.0,94,0.11,,,0.26,Wunderground v.1.15,2013-06-24 00:05:00,
2013-06-23 20:15:00,67.7,66.2,29.96,WSW,242,0.0,0.0,95,0.09,,,0.27,Wunderground v.1.15,2013-06-24 00:15:00,
2013-06-23 20:20:00,67.7,66.5,29.97,WSW,242,0.0,0.0,96,0.05,,,0.27,Wunderground v.1.15,2013-06-24 00:20:00,
2013-06-23 20:25:00,67.7,66.5,29.98,WSW,242,0.0,0.0,96,0.04,,,0.27,Wunderground v.1.15,2013-06-24 00:25:00,
2013-06-23 20:35:00,67.7,66.8,29.98,WSW,241,0.0,0.0,97,0.00,,,0.27,Wunderground v.1.15,2013-06-24 00:35:00,
2013-06-23 20:40:00,67.8,66.9,29.98,WSW,242,0.0,0.0,97,0.00,,,0.27,Wunderground v.1.15,2013-06-24 00:40:00,
2013-06-23 20:45:00,67.7,66.8,29.99,WSW,242,0.0,0.0,97,0.00,,,0.27,Wunderground v.1.15,2013-06-24 00:45:00,
2013-06-23 20:55:00,67.7,66.8,29.99,WSW,242,0.0,0.0,97,0.00,,,0.27,Wunderground v.1.15,2013-06-24 00:55:00,
2013-06-23 21:05:00,67.6,66.7,29.99,WSW,242,0.0,0.0,97,0.00,,,0.27,Wunderground v.1.15,2013-06-24 01:05:00,
2013-06-23 21:10:00,67.6,66.7,29.99,WSW,241,0.0,0.0,97,0.00,,,0.27,Wunderground v.1.15,2013-06-24 01:10:00,
2013-06-23 21:20:00,67.6,67.0,29.98,WSW,242,0.0,0.0,98,0.00,,,0.27,Wunderground v.1.15,2013-06-24 01:20:00,
2013-06-23 21:25:00,67.6,67.0,29.99,WSW,242,0.0,0.0,98,0.00,,,0.27,Wunderground v.1.15,2013-06-24 01:25:00,
2013-06-23 21:30:00,67.5,66.9,29.99,WSW,242,0.0,0.0,98,0.00,,,0.27,Wunderground v.1.15,2013-06-24 01:30:00,
2013-06-23 21:35:00,67.6,67.0,29.99,WSW,242,0.0,0.0,98,0.00,,,0.27,Wunderground v.1.15,2013-06-24 01:35:00,
2013-06-23 21:45:00,67.6,67.0,29.99,WSW,242,0.0,0.0,98,0.00,,,0.27,Wunderground v.1.15,2013-06-24 01:45:00,
2013-06-23 21:55:00,67.4,66.8,29.99,WSW,242,0.0,0.0,98,0.00,,,0.27,Wunderground v.1.15,2013-06-24 01:55:00,
2013-06-23 22:05:00,67.5,66.9,29.99,WSW,242,0.0,0.0,98,0.00,,,0.27,Wunderground v.1.15,2013-06-24 02:05:00,
2013-06-23 22:15:00,67.7,67.1,29.99,WSW,242,0.0,0.0,98,0.00,,,0.27,Wunderground v.1.15,2013-06-24 02:15:00,
2013-06-23 22:20:00,67.7,67.1,29.99,WSW,242,0.0,0.0,98,0.00,,,0.27,Wunderground v.1.15,2013-06-24 02:20:00,
2013-06-23 22:25:00,67.8,67.2,29.99,WSW,242,0.0,0.0,98,0.00,,,0.27,Wunderground v.1.15,2013-06-24 02:25:00,
2013-06-23 22:35:00,67.8,67.2,29.99,WSW,241,0.0,0.0,98,0.00,,,0.27,Wunderground v.1.15,2013-06-24 02:35:00,
2013-06-23 22:40:00,67.7,67.1,29.98,WSW,242,0.0,0.0,98,0.00,,,0.27,Wunderground v.1.15,2013-06-24 02:40:00,
2013-06-23 22:45:00,67.7,67.1,29.98,WSW,242,0.0,0.0,98,0.00,,,0.27,Wunderground v.1.15,2013-06-24 02:45:00,
2013-06-23 22:55:00,67.8,67.2,29.98,WSW,242,0.0,0.0,98,0.00,,,0.27,Wunderground v.1.15,2013-06-24 02:55:00,
2013-06-23 23:05:00,68.0,67.7,29.98,WSW,242,0.0,0.0,99,0.00,,,0.27,Wunderground v.1.15,2013-06-24 03:05:00,
2013-06-23 23:10:00,68.1,67.8,29.98,WSW,242,0.0,0.0,99,0.00,,,0.27,Wunderground v.1.15,2013-06-24 03:10:00,
2013-06-23 23:15:00,68.2,67.9,29.98,WSW,242,0.0,0.0,99,0.00,,,0.27,Wunderground v.1.15,2013-06-24 03:15:00,
2013-06-23 23:25:00,68.1,67.8,29.98,WSW,242,0.0,0.0,99,0.00,,,0.27,Wunderground v.1.15,2013-06-24 03:25:00,
2013-06-23 23:30:00,68.0,67.7,29.98,WSW,242,0.0,0.0,99,0.00,,,0.27,Wunderground v.1.15,2013-06-24 03:30:00,
2013-06-23 23:40:00,68.0,67.7,29.97,WSW,242,0.0,0.0,99,0.00,,,0.27,Wunderground v.1.15,2013-06-24 03:40:00,
2013-06-23 23:50:00,68.2,67.9,29.97,WSW,241,0.0,0.0,99,0.00,,,0.27,Wunderground v.1.15,2013-06-24 03:50:00,
2013-06-23 23:55:00,68.3,68.0,29.97,WSW,242,0.0,0.0,99,0.00,,,0.27,Wunderground v.1.15,2013-06-24 03:55:00,